Regional Weather Roundup
Issued by NWS Little Rock, AR

Home | Current Version | Previous Version | Text Only | Print | Product List | Glossary On
Versions: 1 2 3 4 5 6 7 8 9 10 11 12 13 14 15 16 17 18 19 20 21 22 23 24 25 26 27 28 29 30 31 32 33 34 35 36 37 38 39 40 41 42 43 44 45 46 47 48 49 50
000
ASUS44 KLZK 032305
RWRLZK

WEATHER ROUNDUP FOR ARKANSAS
NATIONAL WEATHER SERVICE LITTLE ROCK AR
500 PM CST TUE MAR 03 2015

NOTE: "FAIR" INDICATES FEW OR NO CLOUDS BELOW 12,000 FEET WITH NO
SIGNIFICANT WEATHER AND/OR OBSTRUCTIONS TO VISIBILITY.

ARZ001-003-010-029-040000-
NORTHWEST ARKANSAS

CITY           SKY/WX    TMP DP  RH WIND       PRES   REMARKS
FAYETTEVILLE   CLOUDY    49  48  97 S8        29.84S
FORT SMITH     CLOUDY    43  41  93 NE12      29.86R FOG
HARRISON       LGT RAIN  56  53  90 CALM      29.82S
BENTONVILLE    CLOUDY    50  45  81 W6        29.84S
ROGERS         CLOUDY    50  48  93 W7        29.84R
SILOAM SPGS    CLOUDY    52  45  76 W5        29.85S
HIGHFILL       CLOUDY    50  48  93 VRB5      29.82S
SPRINGDALE     CLOUDY    50  50 100 W9G21     29.85R
$$

ARZ004-005-016-040000-
NORTH CENTRAL ARKANSAS

CITY           SKY/WX    TMP DP  RH WIND       PRES   REMARKS
BATESVILLE     CLOUDY    63  54  72 SW3       29.84S
FLIPPIN        CLOUDY    55  48  76 S6        29.81S
MTN HOME       CLOUDY    54  50  86 SW3       29.82S
$$

ARZ040-041-040000-
WEST CENTRAL ARKANSAS

CITY           SKY/WX    TMP DP  RH WIND       PRES   REMARKS
MENA           CLOUDY    52  50  93 W5        29.86S
MOUNT IDA      CLOUDY    57  52  83 NW3       29.83F
$$

ARZ009-017-025-026-028-040000-
NORTHEAST ARKANSAS

CITY           SKY/WX    TMP DP  RH WIND       PRES   REMARKS
CORNING        FAIR      46  46 100 SW5       29.85F FOG
JONESBORO      CLOUDY    51  51 100 S12       29.86F FOG
NEWPORT        CLOUDY    53  51  93 S10       29.87S
WALNUT RIDGE   CLOUDY    48  45  87 S12       29.85R
BLYTHEVILLE    CLOUDY    55  54  96 SW8       29.88F
NW BLYTHEVILLE FOG       54  52  94 SW9       29.88R VSB 1
$$

ARZ022-023-033-042-044-040000-
CENTRAL ARKANSAS

CITY           SKY/WX    TMP DP  RH WIND       PRES   REMARKS
LITTLE ROCK    CLOUDY    56  51  84 S7        29.89S
N LITTLE ROCK  CLOUDY    54  52  94 SW6       29.89S
JACKSONVILLE   CLOUDY    54  50  86 S5        29.87F
SEARCY         CLOUDY    53  50  89 S9        29.89S
HOT SPRINGS    CLOUDY    55  51  86 W3        29.87S
RUSSELLVILLE   RAIN      46  45  96 NW3       29.86F FOG
CLINTON        LGT RAIN  48  46  93 CALM      29.87F VSB 3/4
$$

ARZ036-040000-
EAST ARKANSAS

CITY           SKY/WX    TMP DP  RH WIND       PRES   REMARKS
WEST MEMPHIS   CLOUDY    55  55 100 S16       29.88F
$$

ARZ050-053-066-070-073-040000-
SOUTHWEST ARKANSAS

CITY           SKY/WX    TMP DP  RH WIND       PRES   REMARKS
ARKADELPHIA    CLOUDY    52  52 100 N3        29.89S FOG
CAMDEN         CLOUDY    59  55  88 MISG      29.88F FOG
TEXARKANA      CLOUDY    64  60  87 SE5       29.85F
EL DORADO      CLOUDY    60  59  96 S3        29.90F FOG
DE QUEEN       FOG       48  47  96 NE3       29.86S VSB 1
$$

ARZ056-057-069-040000-
SOUTHEAST ARKANSAS

CITY           SKY/WX    TMP DP  RH WIND       PRES   REMARKS
PINE BLUFF     CLOUDY    58  56  93 S15       29.89F
STUTTGART      CLOUDY    54  52  94 S13       29.89S
MONTICELLO     FOG       58  57  97 CALM      29.90F VSB 1/4

$$





USA.gov is the U.S. government's official web portal to all federal, state and local government web resources and services.